EW5919 Weather Reports


time (UTC)temp
C
wind
direction
speed
KPH
gust
KPH
rain 1hr
cm
rain 24hr
cm
rain mn
cm
humidity
%
barometer
mb
20260504204517 26 189 0.0 0.0 0.00 0.00 0.00 32 1013.1
20260504203013 26 165 0.0 1.6 0.00 0.00 0.00 34 1013.2
20260504201509 26 152 0.0 6.4 0.00 0.00 0.00 33 1013.3
20260504200008 26 212 0.0 0.0 0.00 0.00 0.00 35 1013.4
20260504194507 26 163 0.0 3.2 0.00 0.00 0.00 31 1013.7
20260504193004 26 146 0.0 6.4 0.00 0.00 0.00 32 1013.8
20260504191502 26 127 0.0 3.2 0.00 0.00 0.00 35 1014.2
20260504190100 26 194 0.0 1.6 0.00 0.00 0.00 34 1014.3
20260504184559 25 302 0.0 6.4 0.00 0.00 0.00 35 1014.5
20260504183056 25 200 0.0 1.6 0.00 0.00 0.00 37 1014.7
20260504181553 25 313 0.0 3.2 0.00 0.00 0.00 37 1015.0
20260504180049 25 261 0.0 0.0 0.00 0.00 0.00 38 1015.2
20260504174548 23 205 0.0 0.0 0.00 0.00 0.00 42 1015.4
20260504173042 23 246 0.0 0.0 0.00 0.00 0.00 43 1015.5
20260504171544 23 294 0.0 0.0 0.00 0.00 0.00 42 1015.7
20260504081621 5 304 0.0 0.0 0.00 0.00 0.00 91 1016.7
20260504044557 8 304 0.0 0.0 0.00 0.00 0.00 84 1017.6
20260504043058 8 304 0.0 0.0 0.00 0.00 0.00 83 1017.7
20260504041551 8 304 0.0 0.0 0.00 0.00 0.00 83 1017.8
20260504040049 8 304 0.0 0.0 0.00 0.00 0.00 82 1017.7
20260504034550 9 304 0.0 0.0 0.00 0.00 0.00 80 1017.8
20260504033048 10 304 0.0 0.0 0.00 0.00 0.00 79 1017.7
20260504031551 10 304 0.0 0.0 0.00 0.00 0.00 78 1017.7
20260504030048 10 304 0.0 0.0 0.00 0.00 0.00 77 1017.6
20260504024549 11 304 0.0 0.0 0.00 0.00 0.00 75 1017.4
20260504023047 11 304 0.0 0.0 0.00 0.00 0.00 75 1017.4
20260504021547 11 304 0.0 0.0 0.00 0.00 0.00 73 1017.3
20260504014559 13 304 0.0 0.0 0.00 0.00 0.00 69 1016.9
20260504013058 13 304 0.0 0.0 0.00 0.00 0.00 66 1016.7
20260504011546 15 304 0.0 0.0 0.00 0.00 0.00 61 1016.3
20260504010046 16 304 0.0 0.0 0.00 0.00 0.00 59 1016.3
20260504004615 17 304 0.0 0.0 0.00 0.00 0.00 55 1016.1
20260504003049 18 304 0.0 0.0 0.00 0.00 0.00 53 1016.0
20260504001615 19 309 0.0 0.0 0.00 0.00 0.00 47 1015.9
20260504000045 20 309 0.0 0.0 0.00 0.00 0.00 41 1015.9
20260503234541 21 309 0.0 0.0 0.00 0.00 0.00 38 1015.9
20260503233042 22 291 0.0 3.2 0.00 0.00 0.00 36 1015.8
20260503231538 21 259 0.0 0.0 0.00 0.00 0.00 34 1015.8
20260503230049 21 281 0.0 3.2 0.00 0.00 0.00 36 1015.8
20260503224538 22 275 0.0 0.0 0.00 0.00 0.00 32 1015.8
20260503223037 22 258 0.0 3.2 0.00 0.00 0.00 34 1015.8
20260503221536 22 333 0.0 1.6 0.00 0.00 0.00 36 1015.9
20260503220044 22 318 0.0 8.0 0.00 0.00 0.00 34 1016.0
20260503214534 22 302 0.0 3.2 0.00 0.00 0.00 36 1016.0
20260503213034 22 306 0.0 4.8 0.00 0.00 0.00 35 1016.2
20260503211535 22 317 0.0 0.0 0.00 0.00 0.00 34 1016.3
20260503210030 22 287 0.0 0.0 0.00 0.00 0.00 35 1016.4